Wind from 140 at 6 knots

Air temperature 6.0° C
Dewpoint -0.0° C

Last reported at 2014-Apr-19 05:20 UTC.
Time now 2014-Apr-19 07:07 UTC

Location: N 60°17' E 005°14'.
View on Google Maps.

See reports from other nearby stations

Tides Stations Pressure Air Temp Water Temp Dewpoint Dewpoint depression Visibility Wind Speed Wind Dir Waves Ship positions

  
sailing weather and tide predictions

BERGEN / FLESLAND weather

date/time (UTC)wind fromknots sea level pressurealtimeterstation pressurevisibilityair tempwater tempwave heightnotes
2014-Apr-19 06:20 140 7 7.0
2014-Apr-19 05:50 140 7 7.0
2014-Apr-19 05:20 140 6 6.0
2014-Apr-19 04:50 140 7 5.0
2014-Apr-19 04:20 140 7 5.0
2014-Apr-19 03:50 140 9 5.0
2014-Apr-19 03:20 130 7 5.0
2014-Apr-19 02:50 140 8 3.0
2014-Apr-19 01:50 130 3 2.0
2014-Apr-19 00:50 160 3 2.0
2014-Apr-18 23:50 140 4 2.0
2014-Apr-18 22:50 3.0
2014-Apr-18 22:20 290 2 4.0
2014-Apr-18 21:50 4.0
2014-Apr-18 21:20 020 4 4.0
2014-Apr-18 20:50 360 5 5.0
2014-Apr-18 20:20 340 8 5.0
2014-Apr-18 19:50 340 8 6.0
2014-Apr-18 19:20 350 8 6.0
2014-Apr-18 18:50 330 7 7.0
2014-Apr-18 18:20 320 7 7.0
2014-Apr-18 17:50 330 8 8.0
2014-Apr-18 17:20 330 10 8.0
2014-Apr-18 16:50 340 11 8.0
2014-Apr-18 16:20 340 12 8.0
2014-Apr-18 15:50 330 13 8.0
2014-Apr-18 15:20 320 12 9.0
2014-Apr-18 14:50 330 11 5.4 9.0
2014-Apr-18 14:20 330 10 5.410.0
2014-Apr-18 13:50 310 10 5.4 9.0
2014-Apr-18 13:20 330 13 5.4 9.0
2014-Apr-18 12:50 320 11 5.4 9.0
2014-Apr-18 12:20 320 10 5.4 9.0
2014-Apr-18 11:50 320 11 5.4 9.0
2014-Apr-18 11:20 320 9 5.4 9.0
2014-Apr-18 10:50 330 8 5.4 9.0
2014-Apr-18 10:20 340 9 5.4 9.0
2014-Apr-18 09:50 320 9 5.4 8.0
2014-Apr-18 09:20 330 10 5.4 8.0
2014-Apr-18 08:50 020 8 5.4 7.0
2014-Apr-18 08:20 030 8 5.4 7.0
2014-Apr-18 07:50 360 7 5.4 6.0
2014-Apr-18 07:20 340 8 5.4 6.0
2014-Apr-18 06:50 350 10 5.4 5.0
2014-Apr-18 06:20 340 11 5.4 5.0
2014-Apr-18 05:50 340 9 5.4 4.0
2014-Apr-18 05:20 010 9 5.4 4.0
2014-Apr-18 04:50 010 7 5.4 4.0
2014-Apr-18 04:20 010 9 5.4 4.0
2014-Apr-18 03:50 360 9 5.4 4.0
2014-Apr-18 03:20 350 9 5.4 4.0
2014-Apr-18 02:50 340 10 4.0
2014-Apr-18 01:50 350 9 4.0
2014-Apr-18 00:50 350 13 5.4 5.0
2014-Apr-17 23:50 340 9 5.4 5.0
2014-Apr-17 22:50 350 7 5.4 5.0
2014-Apr-17 21:50 330 8 5.4 5.0
2014-Apr-17 21:20 340 9 5.4 5.0
2014-Apr-17 20:50 340 9 5.4 6.0
2014-Apr-17 20:20 330 12 5.4 6.0
2014-Apr-17 19:50 330 12 5.4 6.0
2014-Apr-17 19:20 320 10 5.4 6.0
2014-Apr-17 18:50 330 10 5.4 6.0
2014-Apr-17 18:20 320 8 5.4 6.0
2014-Apr-17 17:50 330 7 5.4 6.0
2014-Apr-17 16:20 320 7 5.4 7.0
2014-Apr-17 15:20 280 4 5.4 7.0 Showers in the vicinity.
2014-Apr-17 14:50 270 5 5.4 7.0 Showers in the vicinity.
2014-Apr-17 14:20 5.4 7.0 Showers in the vicinity.
2014-Apr-17 13:50 5.4 6.0 Showers in the vicinity.
2014-Apr-17 13:20 270 4 5.4 5.0 Light rain showers.
2014-Apr-17 12:50 220 6 5.4 6.0 Light rain.
2014-Apr-17 12:20 4.9 6.0 Light rain.
2014-Apr-17 11:50 220 6 5.4 6.0 Light rain.
2014-Apr-17 11:20 230 4 5.4 6.0 Light rain.
2014-Apr-17 10:50 250 8 5.4 5.0 Light rain.
2014-Apr-17 10:20 230 7 5.4 6.0 Light rain drizzle.
2014-Apr-17 09:50 250 9 5.4 5.0 Light rain.
2014-Apr-17 09:20 210 9 5.4 6.0 Light rain.
2014-Apr-17 08:50 220 9 5.4 6.0 Light rain.
2014-Apr-17 08:20 230 12 5.4 6.0 Light rain.
2014-Apr-17 07:50 180 16 3.8 7.0 Light rain.
2014-Apr-17 07:20 180 19 4.3 6.0 Light rain.